Temp
23 23 23 24 23 23 23 23 23 22 22 22 22 22 22 22 22 22 22 22 22 22 21 21 22 22 21 21 20 20 19 19 19 19 18 18 18 18 17 16 16 16
23 23 23 23 24 23 23 23 23 23 22 22 22 22 22 22 22 22 22 22 22 22 21 21 21 21 21 21 21 20 19 19 19 19 18 17 17 18 18 17 16 15
23 23 23 23 24 24 23 23 23 23 23 22 23 23 22 22 22 22 22 22 22 21 21 21 21 21 21 21 21 20 20 19 18 18 18 17 17 17 17 17 17 16
23 23 23 23 24 24 23 23 23 23 23 23 23 23 22 22 22 22 21 21 21 21 21 20 20 20 20 20 20 20 20 19 18 17 17 18 17 17 17 16 16 16
23 23 23 23 24 24 24 23 23 23 23 23 23 23 22 22 22 21 21 21 21 21 21 20 20 20 19 19 19 19 19 19 18 17 17 17 17 17 17 16 16 15
23 23 23 23 24 24 24 23 23 23 23 23 23 23 22 22 22 21 21 21 21 21 20 20 20 19 19 19 18 18 18 18 18 17 17 17 17 17 17 17 16 15
23 23 23 23 24 24 24 23 23 23 23 23 23 22 22 22 21 21 21 21 21 20 20 20 19 19 19 18 18 18 18 18 18 17 17 17 17 17 17 17 16 16
23 23 23 23 24 24 24 23 23 23 23 23 22 22 22 22 21 21 21 21 21 20 20 20 19 19 18 18 18 18 17 17 17 16 17 17 17 17 17 17 16 16
23 23 23 23 23 23 23 23 23 23 23 22 22 22 22 21 21 21 21 21 21 20 20 19 19 19 18 18 18 18 17 17 17 17 17 17 17 17 17 17 17 16
24 23 23 23 23 23 23 23 23 23 23 22 22 22 22 21 21 21 21 21 21 20 20 19 19 19 18 18 18 18 17 17 17 17 17 17 17 17 18 17 17 17
24 24 23 23 23 23 23 23 23 23 22 22 22 22 22 21 21 21 21 21 21 20 20 19 19 19 18 18 18 18 18 18 18 18 18 18 18 18 18 18 18 18
24 24 24 24 23 23 23 23 23 23 22 22 22 22 22 21 21 21 21 21 21 20 20 20 19 19 19 19 19 19 19 18 18 18 18 18 18 18 18 18 18 18
24 24 24 24 23 23 23 23 23 23 22 22 22 22 22 21 21 21 21 21 21 21 20 20 20 19 19 19 19 19 19 19 18 18 18 18 18 18 18 18 18 18
24 24 24 23 23 23 23 23 23 22 22 22 22 22 21 21 21 21 21 21 21 21 21 20 20 19 19 19 19 19 19 19 19 18 18 18 18 18 17 17 17 17
24 24 23 23 23 22 22 22 22 22 22 22 22 22 21 21 21 21 21 21 21 21 21 21 20 19 19 19 19 19 19 18 18 18 18 18 17 17 16 16 16 16
24 24 23 23 23 22 22 22 22 22 22 22 21 21 21 21 21 21 21 21 21 21 21 20 20 20 19 19 19 19 19 18 18 18 17 16 16 16 16 16 16 16
24 24 23 23 23 22 22 22 22 22 22 21 21 21 21 21 21 21 21 21 21 21 21 20 20 20 20 19 19 19 18 18 18 17 17 16 16 16 16 16 16 16
24 24 23 23 23 22 22 22 21 21 21 21 21 21 21 21 21 21 21 21 21 21 20 20 20 20 20 19 19 19 18 18 18 17 16 16 16 16 16 16 16 15
24 24 23 23 23 22 22 22 21 21 21 21 21 21 21 21 21 21 21 21 21 21 20 20 19 20 19 19 19 19 18 18 17 17 16 16 16 16 16 16 16 15
24 24 24 23 23 22 22 21 21 21 21 20 20 20 20 20 21 21 21 21 21 20 19 19 19 19 19 18 19 18 18 17 17 17 16 16 16 16 16 16 16 15
24 24 23 23 23 22 21 21 20 20 20 20 20 20 20 20 20 21 20 20 20 20 19 19 19 19 18 18 18 18 17 17 17 16 16 16 16 17 17 16 16 15
24 23 23 23 23 22 21 20 20 20 20 20 20 20 20 20 20 20 20 20 20 19 18 18 18 19 18 18 17 17 17 17 16 16 16 17 17 17 17 16 16 16
24 23 23 23 22 21 21 20 20 20 20 20 20 20 20 20 20 20 20 20 20 19 18 18 18 18 18 17 17 17 16 16 16 16 16 16 16 16 16 16 16 16
24 23 23 23 22 21 21 20 20 20 20 20 20 20 20 20 20 20 20 20 20 19 18 18 18 18 17 17 17 16 16 16 16 16 16 16 16 16 16 16 15 16
24 23 23 23 22 21 21 20 20 20 19 19 20 20 20 20 20 20 20 20 19 19 18 18 18 17 17 17 17 16 15 16 16 16 16 16 16 16 16 15 15 15
24 23 23 22 21 21 20 20 19 19 19 19 19 20 20 20 20 19 19 19 19 18 18 18 18 17 16 16 16 15 15 16 16 16 16 16 16 16 15 15 15 15
Height
769 770 772 774 776 778 780 782 783 785 787 788 790 791 793 795 797 800 802 804 806 807 807 805 805 806 807 809 810 811 812 814 815 816 817 819 820 821 821 822 823 823
767 768 769 772 774 777 778 780 781 783 785 786 788 790 792 793 795 797 800 803 805 806 805 804 805 805 806 807 809 809 811 812 813 814 815 816 817 818 819 819 819 820
764 765 767 769 772 774 776 778 780 781 783 785 786 788 790 791 793 796 798 801 803 804 804 804 804 805 805 806 807 808 809 810 812 813 813 814 815 816 816 816 817 817
761 762 764 767 770 772 774 776 778 780 781 783 784 786 788 790 792 794 796 799 800 802 803 803 803 803 805 805 806 806 807 808 810 811 813 813 814 814 814 815 815 815
758 760 762 765 768 770 772 774 776 778 779 781 782 783 786 788 790 792 795 796 798 800 801 803 803 802 803 805 805 805 806 807 808 809 811 812 813 813 813 814 814 815
756 757 760 763 765 768 769 771 774 776 777 779 780 782 784 786 788 790 793 795 797 798 799 801 802 802 803 804 805 805 805 806 807 808 809 811 812 812 813 813 813 814
753 755 757 760 763 766 767 769 771 774 775 777 778 780 782 784 786 789 791 793 795 796 798 799 800 801 802 803 804 805 805 806 807 807 808 810 810 811 812 812 812 813
750 752 754 757 760 763 765 767 769 771 773 775 777 778 780 782 785 787 789 792 794 795 796 797 798 800 801 802 804 805 805 806 807 808 808 809 810 810 811 812 812 813
748 749 751 755 757 760 762 765 767 769 771 773 775 776 778 781 783 786 788 790 792 793 794 795 797 799 800 801 803 804 805 806 807 807 808 809 809 810 810 811 812 813
745 746 748 751 754 757 759 762 765 767 769 771 773 774 776 779 782 784 787 788 790 791 792 793 795 797 798 800 802 803 804 805 806 807 807 808 809 809 809 810 811 812
741 743 745 748 751 754 756 759 762 765 767 769 771 772 774 777 780 783 785 786 788 789 790 791 793 795 797 799 800 802 803 804 805 806 807 807 807 807 808 809 810 812
737 739 741 744 748 751 754 757 759 762 765 767 769 770 772 775 778 781 783 784 786 787 788 789 791 793 795 797 799 800 801 803 804 805 806 806 806 807 807 808 810 811
733 736 738 741 745 748 751 754 757 760 762 765 766 768 770 773 776 779 781 782 784 785 786 787 788 790 793 795 797 798 800 801 802 803 805 805 805 805 806 807 809 810
730 732 735 738 742 745 748 752 754 757 760 762 764 766 769 772 774 777 779 780 782 783 784 785 786 788 791 793 795 797 798 800 801 802 803 804 804 804 806 807 809 810
727 730 733 736 739 743 746 749 752 755 757 760 762 764 767 770 772 775 776 778 780 781 782 783 784 786 788 791 793 795 797 799 800 801 802 803 804 805 806 807 808 809
725 727 730 733 736 740 743 746 749 752 754 757 759 762 765 768 771 773 774 776 777 778 779 780 782 784 787 789 792 794 796 798 799 800 801 803 804 805 806 807 808 808
722 725 727 730 733 737 740 743 746 748 751 754 757 760 763 766 768 770 772 774 775 776 777 778 780 783 785 787 791 793 794 796 798 799 800 802 803 804 805 806 807 807
719 722 725 728 731 734 737 740 743 746 749 752 754 757 761 764 766 768 769 771 772 774 775 776 778 781 784 786 789 791 793 795 797 798 799 801 802 803 804 806 806 806
715 719 723 725 727 731 735 738 741 743 746 749 751 755 758 761 764 765 767 769 770 771 773 774 776 779 783 785 788 790 792 794 796 797 799 800 801 802 804 805 805 805
711 716 720 723 725 728 731 734 737 740 743 746 749 753 756 759 761 763 764 766 768 769 771 772 774 777 781 784 787 789 791 794 795 797 798 799 800 802 803 804 804 804
707 712 718 721 722 725 728 731 735 738 741 744 747 751 754 757 759 760 762 764 766 767 769 770 773 776 779 783 785 787 790 793 795 796 797 798 799 801 802 803 803 804
705 710 715 718 720 722 725 729 732 735 738 741 745 749 753 755 757 758 760 762 764 765 766 768 772 775 778 781 784 786 789 792 794 795 796 797 798 799 801 802 803 803
703 707 712 715 717 719 722 726 729 732 735 738 742 747 750 752 754 756 758 759 762 763 764 766 770 773 776 779 782 785 788 791 793 794 794 796 797 799 800 801 802 803
701 705 709 712 714 716 719 722 726 730 732 735 739 743 746 750 752 755 756 758 760 761 762 764 768 771 775 778 780 784 787 790 792 792 793 795 796 798 799 800 801 802
698 702 706 709 712 714 716 719 723 727 730 733 737 741 744 748 751 753 754 756 758 760 760 763 766 770 773 776 779 783 786 789 790 791 792 794 795 797 798 799 800 801
696 700 703 706 709 711 714 718 721 724 728 732 736 739 743 746 749 751 753 755 757 758 759 761 765 768 772 775 778 782 785 787 789 789 790 792 794 796 797 797 799 800
Wind_Speed
26 26 26 24 24 25 26 26 26 26 26 26 25 25 24 24 24 23 22 20 19 19 19 21 23 22 22 22 21 18 16 16 17 15 11 11 13 15 14 14 15 18
27 26 26 24 24 25 26 26 26 26 27 26 25 24 24 23 23 22 21 20 19 18 18 19 20 20 21 22 21 19 16 14 15 15 12 10 10 12 13 13 13 14
28 27 27 26 25 26 27 26 25 26 27 26 25 24 23 22 22 21 21 20 19 18 16 15 16 17 18 19 19 18 16 12 10 9 8 8 7 9 11 12 12 12
28 27 28 27 25 26 27 27 25 25 27 26 25 24 22 21 22 21 21 20 18 16 15 14 13 14 15 15 16 16 15 12 7 4 4 4 5 8 10 9 9 9
28 28 29 28 26 25 27 27 26 25 27 27 25 24 22 21 22 22 21 20 18 16 15 14 12 12 12 12 12 12 13 12 9 7 5 3 4 5 8 8 5 5
29 28 28 28 26 26 27 28 27 25 26 26 26 24 22 22 22 22 21 20 18 17 15 14 13 13 12 12 11 10 11 12 13 13 9 5 3 4 7 8 6 5
29 29 29 29 28 26 26 28 28 26 25 26 26 25 23 23 23 22 21 19 18 17 17 16 14 13 13 13 12 12 11 12 12 12 8 5 4 4 6 8 9 8
30 30 29 29 28 27 26 27 28 27 25 26 26 26 24 23 23 22 21 20 19 18 17 17 15 13 14 13 12 13 12 10 9 7 7 6 4 5 6 6 8 10
30 30 30 29 29 28 27 27 28 27 26 26 27 26 25 24 23 23 22 21 20 19 19 18 16 15 15 13 13 14 13 11 9 9 10 8 6 7 7 7 7 9
29 29 31 30 29 29 29 28 28 27 26 27 27 27 26 24 24 23 23 22 20 20 20 19 17 17 15 14 15 16 15 14 12 13 14 11 8 9 10 9 7 10
29 29 31 32 30 29 29 29 29 27 27 28 27 28 27 25 25 25 23 22 21 21 21 19 17 17 15 15 17 17 16 15 13 12 14 12 11 12 12 11 9 10
30 29 31 32 31 29 29 29 29 28 28 28 27 28 27 26 26 26 24 22 21 21 21 19 18 18 16 16 17 17 16 16 14 14 15 14 13 12 12 12 10 9
31 30 30 32 31 30 29 29 28 28 29 29 28 28 28 27 25 25 25 23 21 22 21 20 20 20 18 17 18 17 16 15 15 15 15 14 12 10 9 11 10 9
32 32 31 32 31 30 29 29 28 28 29 29 28 28 28 27 26 25 25 24 22 23 22 21 22 22 19 18 18 17 16 15 14 14 14 12 9 8 10 11 11 10
32 32 31 32 32 30 30 30 29 29 30 28 29 29 27 27 26 26 25 24 23 23 23 23 23 22 21 21 19 17 17 15 14 13 13 13 11 10 12 13 11 11
31 31 31 33 32 31 31 31 30 30 30 29 29 29 27 26 27 26 25 25 24 23 22 24 24 22 22 23 19 18 18 17 16 16 15 15 14 13 13 13 12 13
31 31 32 33 32 31 31 31 30 31 31 30 30 29 28 27 27 27 27 25 24 24 22 24 25 22 21 22 20 18 19 18 17 17 17 16 16 15 15 15 14 14
31 31 32 33 32 32 31 31 31 32 32 31 30 30 30 29 28 28 28 26 25 25 23 23 25 21 20 22 22 18 18 18 17 17 17 17 17 16 16 16 15 14
32 32 32 33 33 32 32 31 32 33 32 32 31 31 31 30 29 29 28 26 25 25 24 24 24 22 20 23 24 21 18 17 16 16 17 17 17 17 16 17 16 13
33 32 32 33 33 33 32 32 33 33 33 32 31 31 31 30 29 28 28 26 25 25 25 24 25 24 21 23 25 24 21 17 14 16 17 16 17 17 16 17 16 13
33 32 32 33 33 33 33 33 33 33 33 32 31 31 30 29 29 29 28 27 25 25 25 24 25 25 22 23 24 25 24 18 14 15 16 15 16 16 16 17 16 14
33 32 31 32 33 33 33 33 33 33 34 32 31 30 30 29 28 28 30 28 26 25 25 25 25 24 23 22 23 25 26 19 13 15 16 15 16 15 14 16 15 13
33 32 31 32 32 33 33 33 33 33 34 33 32 30 30 29 27 26 29 29 27 25 25 26 25 23 23 23 22 25 27 20 14 15 16 15 16 15 13 14 14 13
32 32 31 32 32 33 33 33 33 33 34 34 32 30 30 29 27 25 26 28 27 25 25 26 25 24 23 22 23 26 28 20 15 16 16 15 16 15 13 14 14 13
32 31 31 31 33 33 33 33 34 34 34 33 32 30 29 28 26 24 25 27 26 24 25 26 25 25 24 22 23 28 28 20 16 17 17 16 17 16 14 14 14 15
31 31 31 31 33 33 32 33 33 33 33 32 30 29 29 27 26 25 26 26 25 24 24 25 25 25 25 23 24 28 28 20 16 18 18 17 17 17 15 14 14 15
Wind_Direction
193 191 192 193 188 187 187 186 187 187 188 190 193 195 196 195 196 200 203 204 202 200 204 217 227 232 233 235 239 242 243 244 245 243 233 228 225 220 217 211 213 218
194 193 193 194 190 189 189 188 188 188 189 191 192 193 194 194 192 196 199 199 200 198 203 218 226 232 239 242 244 247 250 249 252 256 250 240 229 226 226 220 220 222
195 192 194 197 195 191 190 189 191 189 189 191 192 191 191 191 190 192 195 194 194 194 197 209 221 228 237 243 248 252 252 252 257 258 251 251 244 229 225 220 221 227
195 192 194 198 198 194 190 190 192 191 190 191 192 189 188 190 189 188 189 189 187 189 190 194 207 223 230 234 244 251 252 255 259 244 221 239 246 230 229 230 226 226
195 193 195 198 199 195 190 190 193 193 192 192 190 187 187 188 187 186 186 184 181 184 187 186 190 203 215 225 233 243 251 255 260 261 249 236 227 223 234 242 239 216
195 194 195 198 199 197 192 191 193 194 192 191 188 185 186 186 184 184 183 180 180 182 182 180 179 179 185 196 207 224 245 255 265 273 275 259 227 210 220 220 207 190
194 194 194 197 199 198 194 191 193 195 194 191 187 184 184 183 181 181 179 178 180 182 179 179 179 179 182 188 197 213 236 252 267 274 265 249 239 215 202 190 181 181
193 193 193 195 198 199 197 192 192 194 194 191 187 184 183 181 180 180 179 180 182 182 180 179 180 185 189 193 201 210 221 235 250 247 224 222 224 201 186 172 173 178
193 192 193 195 196 198 198 194 192 193 192 190 186 183 183 182 181 182 180 182 184 184 181 180 181 187 187 188 195 201 204 208 218 217 208 207 205 193 182 167 172 177
192 190 192 194 195 197 197 195 194 193 191 190 187 182 181 181 183 184 183 183 185 185 181 178 181 186 188 191 194 197 197 197 207 212 206 205 206 197 183 166 172 181
193 190 190 192 194 194 194 195 195 193 190 189 187 183 181 181 183 185 186 186 185 184 179 176 180 185 189 195 194 193 194 194 201 208 204 208 217 210 189 173 180 189
191 190 189 190 193 193 193 195 194 192 191 189 186 182 180 181 183 184 185 186 185 183 179 178 183 184 187 195 194 194 196 195 198 201 203 210 215 209 188 172 181 194
190 190 189 189 191 192 192 193 192 190 190 189 185 182 180 182 185 186 185 185 186 185 182 183 185 183 186 193 194 194 196 196 197 198 204 212 208 194 178 172 180 187
188 189 189 189 190 191 190 191 191 189 188 187 184 181 180 183 186 187 186 187 189 188 187 185 182 181 184 190 193 193 194 198 198 194 199 208 206 190 182 181 183 182
187 187 188 187 187 188 189 190 191 189 188 186 182 180 181 184 187 188 187 188 188 189 191 187 182 182 186 189 190 190 191 197 199 194 193 195 191 184 182 181 182 182
187 187 185 184 185 187 189 190 190 189 187 185 183 182 183 186 188 188 188 188 188 188 189 184 181 185 188 186 188 191 191 193 196 195 195 192 185 182 180 180 183 188
187 187 184 183 185 186 187 189 188 186 185 183 183 183 186 188 188 186 188 190 189 188 185 178 178 185 188 186 191 193 188 190 193 191 190 191 189 186 182 179 184 193
186 185 183 183 184 185 186 186 184 183 182 181 181 182 185 189 189 187 190 192 189 187 184 177 177 185 189 188 191 189 183 186 191 188 186 189 189 187 184 182 185 194
184 185 184 184 183 184 185 183 182 182 181 181 180 181 185 190 191 190 190 191 188 183 180 178 180 186 190 189 189 187 182 183 187 185 185 186 186 186 186 183 185 191
184 185 186 185 183 183 183 181 181 182 181 180 180 181 186 191 193 191 187 186 185 179 176 179 182 187 191 192 191 189 186 182 182 184 185 184 184 187 186 185 186 184
183 184 186 186 183 181 179 178 180 181 181 181 181 183 189 193 193 189 185 184 182 176 175 179 183 187 193 194 193 192 189 183 181 185 185 183 185 187 186 185 185 182
182 183 186 186 182 179 177 178 181 181 181 180 181 185 192 193 190 186 184 184 181 175 175 178 181 188 195 196 196 195 190 184 180 182 182 182 183 183 183 184 183 182
181 184 186 185 182 178 176 179 181 181 179 178 180 186 189 190 188 184 182 182 179 176 177 177 179 188 196 198 200 197 190 183 179 180 179 178 178 178 179 180 181 182
182 184 186 184 181 178 176 177 179 180 178 178 181 184 184 185 188 185 181 180 179 180 181 179 179 187 194 197 200 196 188 181 179 180 177 174 174 174 176 180 181 180
184 186 186 183 180 178 178 178 178 178 178 177 179 180 180 182 185 184 181 180 180 181 183 181 181 185 190 194 196 191 183 178 178 178 174 172 173 174 175 180 182 181
188 188 185 182 179 178 177 178 176 175 176 177 178 178 178 181 183 182 179 178 179 180 181 183 184 185 187 191 193 186 178 176 178 176 173 171 173 176 173 172 180 187